Regional Weather Roundup
Issued by NWS Lake Charles, LA

Home | Current Version | Previous Version | Text Only | Print | Product List | Glossary On
Versions: 1 2 3 4 5 6 7 8 9 10 11 12 13 14 15 16 17 18 19 20 21 22 23 24 25 26 27 28
000
ASUS44 KLCH 290210
RWRLCH
REGIONAL WEATHER ROUNDUP
NATIONAL WEATHER SERVICE LAKE CHARLES LA
900 PM CDT SAT MAY 28 2016

Note: "fair" indicates few or no clouds below 12,000 feet with no
significant weather and/or obstructions to visibility.


ACROSS SOUTHEAST TEXAS

CITY           SKY/WX    TMP DP  RH WIND       PRES   REMARKS
BEAUMONT       CLEAR     75  70  84 S7        29.99R
BEAUMONT CITY  FAIR      77  70  79 S3        30.00R
ORANGE         CLEAR     77  70  78 S5        30.02R
JASPER         CLEAR     75  71  87 E3        30.02R
$$

ACROSS CENTRAL LOUISIANA

CITY           SKY/WX    TMP DP  RH WIND       PRES   REMARKS
LEESVILLE      CLEAR     73  70  89 E3        30.02R
FULLERTON      FAIR      75  71  87 CALM      30.00R
ALEXANDRIA INT CLEAR     76  72  87 SE5       30.01R
ESLER FIELD    CLEAR     75  72  90 CALM      30.03R
DERIDDER       FAIR      71  70  95 CALM      30.03R
OAKDALE        CLEAR     74  73  98 CALM      30.02R
OPELOUSAS      FAIR      76  73  90 E3        30.03R
$$

ACROSS SOUTHWEST AND SOUTH CENTRAL LOUISIANA

CITY           SKY/WX    TMP DP  RH WIND       PRES   REMARKS
SULPHUR        CLEAR     78  72  83 SE5       30.01S
LAKE CHARLES   CLEAR     77  72  84 S3        30.01R
CHENNAULT INT  CLEAR    N/A N/A N/A S7          N/A
CAMERON PHI    CLEAR     79  73  83 SE6       30.04R
DEQUINCY       FAIR      75  71  88 CALM      30.01R
JENNINGS       FAIR      79  72  78 SE3       30.02S
LAFAYETTE      PTCLDY    78  72  81 CALM      30.03R
NEW IBERIA     CLOUDY    76  71  85 SE7       30.05R
ABBEVILLE      FAIR      76  73  92 SE6       30.04R
PATTERSON      CLOUDY    73  69  87 CALM      30.05S
SALT POINT       N/A     77  73  87 CALM      30.03R
$$

SELECTED SITES ACROSS THE REGION

CITY           SKY/WX    TMP DP  RH WIND       PRES   REMARKS
HOUSTON BUSH   PTCLDY    77  73  87 SE9       29.98R
HOUSTON HOBBY  MOCLDY    80  72  76 SE7       29.97R
GALVESTON      PTCLDY    79  74  84 SE10      30.00S
COLLEGE STAT   MOCLDY    80  73  79 SE7       29.97R
CONROE         CLEAR     79  72  79 SE8       29.98R
HUNTSVILLE     CLEAR     83  70  64 VRB5      29.97R
LUFKIN         CLEAR     78  72  81 SE5       29.97S
SHREVEPORT     CLEAR     77  71  82 SE3       29.99R
MONROE         CLEAR     77  71  82 VRB3      30.03R
NATCHEZ MS     CLEAR     75  66  73 CALM      30.05R
BATON ROUGE    PTCLDY    78  69  73 S5        30.05R
N.O. INTL ARPT CLOUDY    75  70  84 SE5       30.06R
SLIDELL        CLEAR     73  71  93 CALM      30.06R
$$

MARINE REPORTS

STATION/POSITION TIME  SKY/WX   TEMP    WIND        PRES    VSBY
                                AIR SEA DIR/SP/G
                 (UTC)          (F)     (DEG/KT/KT) (MB)    (MI)
BUOY 30 S HIGH I 0150            81 83  110/ 10/ 12 1015.4R
WVE H/P(F/S)=  3/ 7

SEA RIM ST PARK  0200            79     150/  8/ 10 1016.4R
PORT ARTHUR      0100                               1015.6
SABINE PASS N    0100                               1016.9
TEXAS POINT      NOT AVBL
CALCASIEU PASS   0100                               1015.1
LK CHARLES BEACH 0100                               1016.4R
MARSH ISLAND     0100            80                   N/A
FRESH WATER LOCK 0100                               1017.1
AMERADA PASS     0100                               1017.1
$$




USA.gov is the U.S. government's official web portal to all federal, state and local government web resources and services.